| time (UTC) | temp C | wind direction | speed KPH | gust KPH | rain 1hr cm | rain 24hr cm | rain mn cm | humidity % | barometer mb |
| 20260507074701 | 6 | 58 | 3.2 | 12.9 | 0.00 | 0.61 | 0.08 | 95 | 1010.9 |
| 20260507073931 | 6 | 68 | 3.2 | 19.3 | 0.00 | 0.61 | 0.08 | 95 | 1010.9 |
| 20260507073426 | 6 | 90 | 3.2 | 19.3 | 0.00 | 0.61 | 0.08 | 95 | 1010.9 |
| 20260507072919 | 6 | 74 | 3.2 | 9.7 | 0.00 | 0.61 | 0.08 | 95 | 1010.8 |
| 20260507072415 | 6 | 90 | 4.8 | 16.1 | 0.00 | 0.61 | 0.08 | 95 | 1010.8 |
| 20260507071912 | 6 | 67 | 3.2 | 16.1 | 0.00 | 0.61 | 0.08 | 95 | 1010.9 |
| 20260507071409 | 6 | 331 | 3.2 | 11.3 | 0.00 | 0.61 | 0.08 | 95 | 1010.8 |
| 20260507070911 | 5 | 105 | 3.2 | 11.3 | 0.00 | 0.61 | 0.08 | 95 | 1010.7 |
| 20260507070626 | 5 | 88 | 3.2 | 11.3 | 0.03 | 0.61 | 0.08 | 95 | 1010.8 |
| 20260507065911 | 5 | 81 | 3.2 | 14.5 | 0.03 | 0.61 | 0.08 | 95 | 1010.8 |
| 20260507065412 | 5 | 56 | 3.2 | 16.1 | 0.03 | 0.61 | 0.08 | 95 | 1010.8 |
| 20260507064910 | 5 | 99 | 3.2 | 16.1 | 0.03 | 0.61 | 0.08 | 95 | 1010.8 |
| 20260507064404 | 5 | 82 | 3.2 | 12.9 | 0.03 | 0.61 | 0.08 | 95 | 1010.9 |
| 20260507063904 | 5 | 86 | 3.2 | 14.5 | 0.03 | 0.61 | 0.08 | 95 | 1010.8 |
| 20260507063400 | 5 | 49 | 3.2 | 14.5 | 0.05 | 0.61 | 0.08 | 95 | 1010.8 |
| 20260507062858 | 5 | 71 | 3.2 | 9.7 | 0.05 | 0.61 | 0.08 | 95 | 1010.9 |
| 20260507062357 | 5 | 101 | 3.2 | 9.7 | 0.05 | 0.61 | 0.08 | 95 | 1010.9 |
| 20260507061858 | 5 | 101 | 3.2 | 11.3 | 0.05 | 0.61 | 0.08 | 95 | 1010.8 |
| 20260507061618 | 5 | 71 | 3.2 | 12.9 | 0.05 | 0.61 | 0.08 | 95 | 1010.8 |
| 20260507060855 | 5 | 74 | 3.2 | 12.9 | 0.05 | 0.61 | 0.08 | 95 | 1010.9 |
| 20260507060356 | 5 | 67 | 3.2 | 11.3 | 0.05 | 0.58 | 0.05 | 95 | 1010.8 |
| 20260507055855 | 5 | 71 | 3.2 | 12.9 | 0.05 | 0.58 | 0.05 | 95 | 1010.8 |
| 20260507055840 | 5 | 84 | 1.6 | 12.9 | 0.05 | 0.58 | 0.05 | 95 | 1010.8 |
| 20260507054902 | 5 | 85 | 1.6 | 6.4 | 0.05 | 0.58 | 0.05 | 95 | 1010.9 |
| 20260507054356 | 5 | 88 | 1.6 | 6.4 | 0.05 | 0.58 | 0.05 | 95 | 1011.0 |
| 20260507053855 | 5 | 26 | 1.6 | 11.3 | 0.05 | 0.58 | 0.05 | 95 | 1011.0 |
| 20260507053355 | 5 | 119 | 1.6 | 11.3 | 0.03 | 0.56 | 0.05 | 94 | 1011.0 |
| 20260507053116 | 5 | 86 | 3.2 | 14.5 | 0.03 | 0.56 | 0.05 | 94 | 1010.9 |
| 20260507052353 | 5 | 94 | 3.2 | 14.5 | 0.03 | 0.56 | 0.05 | 94 | 1010.8 |
| 20260507051854 | 5 | 90 | 3.2 | 11.3 | 0.03 | 0.56 | 0.05 | 94 | 1010.7 |
| 20260507051355 | 5 | 73 | 3.2 | 11.3 | 0.00 | 0.53 | 0.03 | 94 | 1010.8 |
| 20260507050854 | 5 | 82 | 3.2 | 11.3 | 0.00 | 0.53 | 0.03 | 93 | 1010.8 |
| 20260507050351 | 5 | 75 | 3.2 | 11.3 | 0.00 | 0.53 | 0.03 | 93 | 1010.8 |
| 20260507045852 | 5 | 83 | 3.2 | 6.4 | 0.00 | 0.53 | 0.03 | 92 | 1010.8 |
| 20260507045351 | 5 | 69 | 3.2 | 9.7 | 0.00 | 0.53 | 0.03 | 92 | 1010.7 |
| 20260507045110 | 5 | 318 | 3.2 | 9.7 | 0.00 | 0.53 | 0.03 | 92 | 1010.7 |
| 20260507044349 | 5 | 64 | 3.2 | 14.5 | 0.00 | 0.53 | 0.03 | 92 | 1010.7 |
| 20260507043847 | 5 | 78 | 3.2 | 14.5 | 0.00 | 0.53 | 0.03 | 92 | 1010.8 |
| 20260507043348 | 5 | 59 | 3.2 | 11.3 | 0.00 | 0.53 | 0.03 | 92 | 1010.7 |
| 20260507042849 | 5 | 304 | 3.2 | 12.9 | 0.00 | 0.53 | 0.03 | 92 | 1010.6 |
| 20260507042347 | 5 | 57 | 3.2 | 14.5 | 0.00 | 0.53 | 0.03 | 92 | 1010.5 |
| 20260507041846 | 5 | 53 | 3.2 | 14.5 | 0.00 | 0.53 | 0.03 | 92 | 1010.4 |
| 20260507041345 | 5 | 43 | 3.2 | 9.7 | 0.00 | 0.53 | 0.03 | 92 | 1010.3 |
| 20260507041110 | 5 | 82 | 3.2 | 12.9 | 0.00 | 0.53 | 0.03 | 92 | 1010.5 |
| 20260507040609 | 5 | 86 | 3.2 | 16.1 | 0.00 | 0.53 | 0.03 | 92 | 1010.1 |
| 20260507035847 | 5 | 85 | 3.2 | 16.1 | 0.00 | 0.53 | 0.03 | 92 | 1010.1 |
| 20260507035602 | 5 | 86 | 3.2 | 12.9 | 0.00 | 0.53 | 0.03 | 92 | 1010.3 |
| 20260507034844 | 5 | 71 | 3.2 | 11.3 | 0.00 | 0.53 | 0.03 | 92 | 1010.2 |
| 20260507034345 | 5 | 63 | 1.6 | 11.3 | 0.00 | 0.53 | 0.03 | 92 | 1010.2 |
| 20260507033843 | 5 | 96 | 3.2 | 12.9 | 0.00 | 0.53 | 0.03 | 92 | 1010.3 |
| 20260507033344 | 5 | 310 | 3.2 | 12.9 | 0.00 | 0.53 | 0.03 | 92 | 1010.2 |
| 20260507032843 | 5 | 14 | 3.2 | 8.0 | 0.00 | 0.53 | 0.03 | 92 | 1010.0 |
| 20260507032345 | 5 | 92 | 3.2 | 12.9 | 0.03 | 0.53 | 0.03 | 92 | 1009.9 |
| 20260507031843 | 5 | 73 | 3.2 | 12.9 | 0.03 | 0.53 | 0.03 | 92 | 1009.8 |
| 20260507031341 | 5 | 107 | 3.2 | 9.7 | 0.03 | 0.53 | 0.03 | 92 | 1009.9 |
| 20260507030840 | 5 | 45 | 3.2 | 14.5 | 0.03 | 0.53 | 0.03 | 92 | 1009.9 |
| 20260507030607 | 5 | 54 | 1.6 | 14.5 | 0.03 | 0.53 | 0.03 | 92 | 1010.0 |
| 20260507025828 | 5 | 36 | 1.6 | 12.9 | 0.03 | 0.53 | 0.03 | 92 | 1010.0 |
| 20260507025324 | 5 | 19 | 1.6 | 12.9 | 0.03 | 0.53 | 0.03 | 92 | 1009.9 |
| 20260507024819 | 5 | 15 | 1.6 | 12.9 | 0.03 | 0.53 | 0.03 | 92 | 1010.0 |
| 20260507024319 | 5 | 77 | 3.2 | 12.9 | 0.03 | 0.53 | 0.03 | 92 | 1009.9 |
| 20260507023815 | 5 | 355 | 3.2 | 9.7 | 0.03 | 0.53 | 0.03 | 92 | 1010.0 |
| 20260507023315 | 5 | 15 | 3.2 | 17.7 | 0.03 | 0.53 | 0.03 | 92 | 1010.2 |
| 20260507022816 | 5 | 80 | 3.2 | 17.7 | 0.03 | 0.53 | 0.03 | 92 | 1010.1 |
| 20260507022539 | 5 | 92 | 3.2 | 12.9 | 0.00 | 0.51 | 0.00 | 92 | 1010.0 |
| 20260507021815 | 5 | 60 | 3.2 | 16.1 | 0.00 | 0.51 | 0.00 | 93 | 1009.9 |
| 20260507021309 | 5 | 45 | 3.2 | 16.1 | 0.00 | 0.51 | 0.00 | 93 | 1010.3 |
| 20260507020802 | 5 | 34 | 3.2 | 9.7 | 0.00 | 0.51 | 0.00 | 93 | 1010.3 |
| 20260507020300 | 5 | 288 | 3.2 | 9.7 | 0.00 | 0.51 | 0.00 | 93 | 1010.3 |
| 20260507015759 | 5 | 65 | 3.2 | 9.7 | 0.00 | 0.51 | 0.00 | 93 | 1010.2 |
| 20260507015258 | 5 | 333 | 3.2 | 12.9 | 0.00 | 0.51 | 0.00 | 93 | 1010.1 |
| 20260507014800 | 5 | 355 | 3.2 | 12.9 | 0.00 | 0.51 | 0.00 | 93 | 1010.2 |
| 20260507014259 | 5 | 72 | 3.2 | 8.0 | 0.00 | 0.51 | 0.00 | 93 | 1009.9 |
| 20260507014021 | 5 | 84 | 4.8 | 19.3 | 0.00 | 0.51 | 0.00 | 93 | 1010.1 |
| 20260507013301 | 5 | 62 | 6.4 | 19.3 | 0.00 | 0.51 | 0.00 | 93 | 1009.7 |
| 20260507012758 | 5 | 90 | 4.8 | 14.5 | 0.00 | 0.51 | 0.00 | 93 | 1009.6 |
| 20260507012257 | 5 | 87 | 4.8 | 14.5 | 0.00 | 0.51 | 0.00 | 93 | 1009.7 |
| 20260507011758 | 5 | 44 | 3.2 | 9.7 | 0.00 | 0.51 | 0.00 | 93 | 1009.9 |
| 20260507011257 | 5 | 342 | 1.6 | 6.4 | 0.00 | 0.51 | 0.00 | 93 | 1010.2 |
| 20260507011017 | 5 | 82 | 1.6 | 11.3 | 0.00 | 0.51 | 0.00 | 93 | 1010.2 |
| 20260507010528 | 5 | 350 | 3.2 | 11.3 | 0.00 | 0.51 | 0.00 | 93 | 1010.2 |
| 20260507005757 | 5 | 327 | 3.2 | 12.9 | 0.00 | 0.51 | 0.00 | 93 | 1010.3 |
| 20260507005257 | 5 | 322 | 3.2 | 12.9 | 0.00 | 0.51 | 0.00 | 93 | 1010.2 |
| 20260507004753 | 5 | 41 | 1.6 | 14.5 | 0.00 | 0.51 | 0.00 | 93 | 1010.1 |
| 20260507004252 | 5 | 277 | 1.6 | 14.5 | 0.00 | 0.51 | 0.00 | 93 | 1010.2 |
| 20260507003751 | 5 | 325 | 1.6 | 8.0 | 0.00 | 0.51 | 0.00 | 93 | 1010.2 |
| 20260507003247 | 5 | 321 | 1.6 | 8.0 | 0.00 | 0.51 | 0.00 | 93 | 1010.3 |
| 20260507003232 | 5 | 320 | 1.6 | 11.3 | 0.00 | 0.51 | 0.00 | 93 | 1010.4 |
| 20260507002247 | 5 | 321 | 3.2 | 11.3 | 0.00 | 0.51 | 0.00 | 93 | 1010.5 |
| 20260507001746 | 5 | 355 | 3.2 | 9.7 | 0.00 | 0.51 | 0.00 | 93 | 1010.1 |
| 20260507001246 | 5 | 89 | 1.6 | 8.0 | 0.00 | 0.51 | 0.00 | 93 | 1010.0 |
| 20260507000746 | 5 | 118 | 1.6 | 6.4 | 0.00 | 0.51 | 0.00 | 93 | 1010.0 |
| 20260507000245 | 5 | 85 | 3.2 | 11.3 | 0.00 | 0.51 | 0.00 | 93 | 1009.9 |
| 20260506235748 | 5 | 100 | 3.2 | 11.3 | 0.00 | 0.51 | 0.00 | 93 | 1010.0 |
| 20260506235245 | 5 | 84 | 1.6 | 11.3 | 0.00 | 0.51 | 0.00 | 93 | 1009.9 |
| 20260506234746 | 5 | 115 | 3.2 | 11.3 | 0.00 | 0.51 | 0.00 | 93 | 1010.0 |
| 20260506234240 | 5 | 70 | 3.2 | 11.3 | 0.00 | 0.51 | 0.00 | 93 | 1010.0 |
| 20260506234223 | 5 | 55 | 1.6 | 11.3 | 0.00 | 0.51 | 0.00 | 93 | 1010.0 |
| 20260506233242 | 5 | 84 | 1.6 | 11.3 | 0.00 | 0.51 | 0.00 | 93 | 1010.2 |
| 20260506232742 | 5 | 99 | 1.6 | 11.3 | 0.00 | 0.51 | 0.00 | 93 | 1010.1 |
| 20260506232235 | 5 | 85 | 1.6 | 6.4 | 0.00 | 0.51 | 0.00 | 93 | 1010.0 |
| 20260506231730 | 5 | 89 | 1.6 | 9.7 | 0.00 | 0.51 | 0.00 | 93 | 1010.1 |
| 20260506231240 | 5 | 298 | 1.6 | 9.7 | 0.00 | 0.51 | 0.00 | 93 | 1010.1 |
| 20260506230727 | 5 | 55 | 1.6 | 16.1 | 0.00 | 0.51 | 0.00 | 94 | 1010.2 |
| 20260506230226 | 5 | 344 | 1.6 | 16.1 | 0.00 | 0.51 | 0.00 | 94 | 1010.2 |
| 20260506225727 | 5 | 107 | 1.6 | 9.7 | 0.00 | 0.51 | 0.00 | 94 | 1010.4 |
| 20260506225453 | 5 | 85 | 3.2 | 11.3 | 0.00 | 0.51 | 0.00 | 94 | 1010.5 |
| 20260506224951 | 5 | 89 | 1.6 | 11.3 | 0.00 | 0.51 | 0.00 | 94 | 1010.6 |
| 20260506224226 | 5 | 86 | 1.6 | 11.3 | 0.00 | 0.51 | 0.00 | 94 | 1010.5 |
| 20260506223728 | 5 | 61 | 1.6 | 6.4 | 0.00 | 0.51 | 0.00 | 94 | 1010.5 |
| 20260506223225 | 5 | 67 | 3.2 | 12.9 | 0.00 | 0.51 | 0.00 | 94 | 1010.6 |
| 20260506222725 | 5 | 91 | 3.2 | 12.9 | 0.00 | 0.51 | 0.00 | 94 | 1010.7 |
| 20260506222224 | 5 | 67 | 3.2 | 9.7 | 0.00 | 0.51 | 0.00 | 94 | 1010.8 |
| 20260506221724 | 5 | 90 | 3.2 | 9.7 | 0.00 | 0.51 | 0.00 | 94 | 1010.7 |
| 20260506221223 | 5 | 105 | 3.2 | 9.7 | 0.00 | 0.51 | 0.00 | 94 | 1010.6 |
| 20260506220722 | 5 | 40 | 3.2 | 9.7 | 0.00 | 0.51 | 0.00 | 94 | 1010.5 |
| 20260506220223 | 5 | 85 | 4.8 | 12.9 | 0.00 | 0.51 | 0.00 | 94 | 1010.5 |
| 20260506215724 | 5 | 76 | 4.8 | 12.9 | 0.00 | 0.51 | 0.00 | 94 | 1010.5 |
| 20260506215223 | 5 | 78 | 3.2 | 12.9 | 0.00 | 0.51 | 0.00 | 94 | 1010.7 |
| 20260506214723 | 5 | 80 | 3.2 | 12.9 | 0.00 | 0.51 | 0.00 | 94 | 1010.8 |
| 20260506214445 | 5 | 86 | 4.8 | 9.7 | 0.00 | 0.51 | 0.00 | 94 | 1010.5 |
| 20260506213944 | 5 | 77 | 4.8 | 11.3 | 0.00 | 0.51 | 0.00 | 94 | 1010.3 |
| 20260506213218 | 5 | 89 | 4.8 | 11.3 | 0.00 | 0.51 | 0.00 | 94 | 1010.5 |
| 20260506212719 | 5 | 73 | 3.2 | 11.3 | 0.00 | 0.51 | 0.00 | 94 | 1010.6 |
| 20260506212220 | 5 | 82 | 1.6 | 6.4 | 0.00 | 0.51 | 0.00 | 94 | 1010.8 |
| 20260506211718 | 5 | 86 | 3.2 | 9.7 | 0.00 | 0.51 | 0.00 | 94 | 1010.9 |
| 20260506211218 | 5 | 42 | 3.2 | 16.1 | 0.00 | 0.51 | 0.00 | 94 | 1010.7 |
| 20260506210720 | 5 | 81 | 3.2 | 16.1 | 0.00 | 0.51 | 0.00 | 94 | 1010.7 |
| 20260506210216 | 5 | 86 | 3.2 | 16.1 | 0.00 | 0.51 | 0.00 | 94 | 1010.7 |
| 20260506205717 | 5 | 65 | 3.2 | 16.1 | 0.00 | 0.51 | 0.51 | 94 | 1010.9 |
| 20260506205215 | 5 | 82 | 4.8 | 14.5 | 0.00 | 0.51 | 0.51 | 94 | 1010.9 |
| 20260506204941 | 5 | 90 | 4.8 | 14.5 | 0.00 | 0.51 | 0.51 | 94 | 1010.7 |
| 20260506204215 | 5 | 121 | 4.8 | 20.9 | 0.00 | 0.51 | 0.51 | 94 | 1010.7 |
| 20260506203714 | 5 | 71 | 6.4 | 20.9 | 0.03 | 0.51 | 0.51 | 94 | 1010.7 |
| 20260506203214 | 5 | 103 | 6.4 | 17.7 | 0.03 | 0.51 | 0.51 | 94 | 1010.7 |
| 20260506202714 | 5 | 84 | 4.8 | 17.7 | 0.03 | 0.51 | 0.51 | 94 | 1010.6 |
| 20260506202208 | 5 | 68 | 3.2 | 16.1 | 0.03 | 0.51 | 0.51 | 95 | 1010.6 |
| 20260506201706 | 5 | 49 | 4.8 | 16.1 | 0.03 | 0.51 | 0.51 | 95 | 1010.8 |
| 20260506201207 | 5 | 82 | 3.2 | 11.3 | 0.03 | 0.51 | 0.51 | 94 | 1011.1 |
| 20260506200705 | 5 | 88 | 3.2 | 11.3 | 0.03 | 0.51 | 0.51 | 94 | 1010.8 |
| 20260506200218 | 5 | 58 | 3.2 | 9.7 | 0.03 | 0.51 | 0.51 | 94 | 1010.9 |
| 20260506195705 | 5 | 77 | 4.8 | 19.3 | 0.05 | 0.51 | 0.51 | 94 | 1011.0 |
| 20260506195201 | 5 | 50 | 3.2 | 19.3 | 0.05 | 0.51 | 0.51 | 94 | 1011.0 |
| 20260506194700 | 5 | 92 | 1.6 | 6.4 | 0.05 | 0.51 | 0.51 | 94 | 1011.1 |
| 20260506194200 | 5 | 78 | 1.6 | 11.3 | 0.05 | 0.51 | 0.51 | 94 | 1011.2 |
| 20260506193657 | 5 | 63 | 1.6 | 11.3 | 0.05 | 0.51 | 0.51 | 94 | 1011.0 |
| 20260506193415 | 5 | 99 | 1.6 | 4.8 | 0.05 | 0.51 | 0.51 | 94 | 1011.2 |
| 20260506192656 | 5 | 102 | 1.6 | 4.8 | 0.05 | 0.51 | 0.51 | 94 | 1011.3 |
| 20260506192205 | 5 | 103 | 1.6 | 4.8 | 0.05 | 0.51 | 0.51 | 94 | 1011.4 |
| 20260506191652 | 5 | 103 | 1.6 | 4.8 | 0.05 | 0.51 | 0.51 | 94 | 1011.5 |
| 20260506191151 | 5 | 90 | 1.6 | 4.8 | 0.08 | 0.51 | 0.51 | 94 | 1011.5 |
| 20260506190651 | 5 | 90 | 1.6 | 4.8 | 0.08 | 0.51 | 0.51 | 94 | 1011.5 |
| 20260506190147 | 5 | 92 | 1.6 | 9.7 | 0.08 | 0.51 | 0.51 | 94 | 1011.4 |
| 20260506185646 | 5 | 5 | 1.6 | 9.7 | 0.08 | 0.48 | 0.48 | 94 | 1011.5 |
| 20260506185055 | 5 | 76 | 1.6 | 11.3 | 0.10 | 0.48 | 0.48 | 94 | 1011.5 |
| 20260506184553 | 5 | 83 | 1.6 | 11.3 | 0.10 | 0.48 | 0.48 | 94 | 1011.4 |
| 20260506184311 | 6 | 92 | 1.6 | 9.7 | 0.13 | 0.46 | 0.46 | 95 | 1011.3 |
| 20260506183553 | 5 | 88 | 1.6 | 6.4 | 0.15 | 0.46 | 0.46 | 95 | 1011.2 |
| 20260506183053 | 6 | 84 | 1.6 | 6.4 | 0.15 | 0.46 | 0.46 | 94 | 1011.2 |
| 20260506182551 | 6 | 84 | 1.6 | 9.7 | 0.15 | 0.46 | 0.46 | 94 | 1011.3 |
| 20260506182051 | 6 | 84 | 1.6 | 9.7 | 0.18 | 0.43 | 0.43 | 94 | 1011.3 |
| 20260506181602 | 6 | 96 | 0.0 | 4.8 | 0.18 | 0.43 | 0.43 | 94 | 1011.4 |
| 20260506181049 | 6 | 96 | 0.0 | 3.2 | 0.18 | 0.43 | 0.43 | 94 | 1011.5 |
| 20260506181027 | 6 | 96 | 0.0 | 1.6 | 0.18 | 0.43 | 0.43 | 94 | 1011.5 |
| 20260506180104 | 6 | 96 | 0.0 | 3.2 | 0.18 | 0.41 | 0.43 | 94 | 1011.5 |
| 20260506175549 | 6 | 96 | 0.0 | 3.2 | 0.18 | 0.41 | 0.41 | 94 | 1011.5 |
| 20260506175049 | 6 | 96 | 0.0 | 0.0 | 0.18 | 0.38 | 0.38 | 93 | 1011.6 |
| 20260506174549 | 6 | 96 | 0.0 | 3.2 | 0.20 | 0.38 | 0.38 | 93 | 1011.6 |
| 20260506174530 | 6 | 96 | 0.0 | 3.2 | 0.18 | 0.33 | 0.33 | 93 | 1011.5 |
| 20260506173536 | 6 | 96 | 0.0 | 3.2 | 0.18 | 0.33 | 0.33 | 92 | 1011.5 |
| 20260506173039 | 6 | 96 | 0.0 | 4.8 | 0.15 | 0.30 | 0.30 | 92 | 1011.3 |
| 20260506172537 | 6 | 97 | 0.0 | 4.8 | 0.18 | 0.28 | 0.30 | 92 | 1011.3 |
| 20260506172035 | 6 | 95 | 0.0 | 4.8 | 0.15 | 0.25 | 0.25 | 92 | 1011.3 |
| 20260506171535 | 6 | 355 | 0.0 | 3.2 | 0.20 | 0.25 | 0.25 | 91 | 1011.3 |
| 20260506171033 | 6 | 355 | 0.0 | 3.2 | 0.20 | 0.23 | 0.23 | 91 | 1011.4 |
| 20260506170531 | 6 | 85 | 0.0 | 1.6 | 0.20 | 0.23 | 0.23 | 90 | 1011.4 |
| 20260506170031 | 6 | 85 | 0.0 | 4.8 | 0.18 | 0.23 | 0.23 | 90 | 1011.4 |
| 20260506165531 | 6 | 85 | 1.6 | 6.4 | 0.20 | 0.23 | 0.23 | 89 | 1011.5 |
| 20260506165033 | 6 | 85 | 1.6 | 6.4 | 0.18 | 0.20 | 0.20 | 88 | 1011.6 |
| 20260506164531 | 6 | 73 | 3.2 | 12.9 | 0.18 | 0.18 | 0.18 | 88 | 1011.6 |
| 20260506164031 | 6 | 69 | 4.8 | 12.9 | 0.15 | 0.15 | 0.18 | 86 | 1011.7 |
| 20260506163530 | 7 | 51 | 4.8 | 11.3 | 0.15 | 0.15 | 0.15 | 85 | 1011.8 |
| 20260506163257 | 7 | 56 | 6.4 | 14.5 | 0.13 | 0.13 | 0.15 | 84 | 1011.9 |
| 20260506162529 | 7 | 86 | 4.8 | 14.5 | 0.10 | 0.10 | 0.10 | 83 | 1011.9 |
| 20260506162307 | 7 | 88 | 4.8 | 12.9 | 0.08 | 0.08 | 0.10 | 81 | 1012.1 |
| 20260506161525 | 8 | 84 | 4.8 | 14.5 | 0.05 | 0.05 | 0.05 | 79 | 1012.1 |
| 20260506161038 | 8 | 123 | 4.8 | 14.5 | 0.05 | 0.05 | 0.05 | 78 | 1012.0 |
| 20260506160525 | 8 | 93 | 1.6 | 11.3 | 0.05 | 0.05 | 0.05 | 77 | 1012.0 |
| 20260506160039 | 8 | 65 | 1.6 | 9.7 | 0.05 | 0.05 | 0.05 | 77 | 1011.8 |
| 20260506155525 | 8 | 65 | 1.6 | 14.5 | 0.03 | 0.03 | 0.05 | 74 | 1011.9 |
| 20260506155025 | 8 | 78 | 4.8 | 14.5 | 0.03 | 0.03 | 0.03 | 73 | 1011.7 |
| 20260506155011 | 9 | 61 | 4.8 | 17.7 | 0.00 | 0.00 | 0.03 | 71 | 1011.5 |
| 20260506154021 | 9 | 57 | 3.2 | 17.7 | 0.00 | 0.00 | 0.00 | 69 | 1011.1 |
| 20260506153745 | 9 | 98 | 3.2 | 12.9 | 0.00 | 0.00 | 0.00 | 68 | 1011.1 |
| 20260506153020 | 10 | 88 | 4.8 | 12.9 | 0.00 | 0.00 | 0.00 | 66 | 1011.2 |
| 20260506152521 | 10 | 76 | 6.4 | 14.5 | 0.00 | 0.00 | 0.00 | 61 | 1011.4 |
| 20260506152022 | 10 | 81 | 8.0 | 20.9 | 0.00 | 0.00 | 0.00 | 63 | 1011.4 |
| 20260506151521 | 10 | 49 | 6.4 | 20.9 | 0.00 | 0.00 | 0.00 | 59 | 1011.3 |
| 20260506151021 | 10 | 94 | 8.0 | 27.4 | 0.00 | 0.00 | 0.00 | 60 | 1011.3 |
| 20260506150521 | 11 | 186 | 8.0 | 27.4 | 0.00 | 0.00 | 0.00 | 54 | 1011.2 |
| 20260506150021 | 11 | 59 | 4.8 | 20.9 | 0.00 | 0.00 | 0.00 | 51 | 1011.0 |
| 20260506145518 | 12 | 131 | 1.6 | 6.4 | 0.00 | 0.00 | 0.00 | 49 | 1010.9 |
| 20260506145014 | 12 | 92 | 1.6 | 8.0 | 0.00 | 0.00 | 0.00 | 46 | 1010.6 |
| 20260506144515 | 12 | 96 | 1.6 | 8.0 | 0.00 | 0.00 | 0.00 | 47 | 1010.5 |
| 20260506144016 | 12 | 77 | 1.6 | 12.9 | 0.00 | 0.00 | 0.00 | 46 | 1010.3 |
| 20260506143514 | 12 | 88 | 3.2 | 12.9 | 0.00 | 0.00 | 0.00 | 45 | 1010.2 |
| 20260506143239 | 12 | 89 | 3.2 | 9.7 | 0.00 | 0.00 | 0.00 | 45 | 1010.4 |
| 20260506142740 | 12 | 90 | 3.2 | 9.7 | 0.00 | 0.00 | 0.00 | 45 | 1010.4 |
| 20260506142016 | 12 | 74 | 3.2 | 8.0 | 0.00 | 0.00 | 0.00 | 46 | 1010.6 |
| 20260506141514 | 12 | 74 | 3.2 | 12.9 | 0.00 | 0.00 | 0.00 | 44 | 1010.7 |
| 20260506141015 | 12 | 79 | 1.6 | 12.9 | 0.00 | 0.00 | 0.00 | 44 | 1010.8 |
| 20260506140510 | 12 | 78 | 3.2 | 12.9 | 0.00 | 0.00 | 0.00 | 46 | 1010.7 |
| 20260506140010 | 12 | 73 | 3.2 | 14.5 | 0.00 | 0.00 | 0.00 | 43 | 1010.6 |
| 20260506135509 | 12 | 93 | 3.2 | 14.5 | 0.00 | 0.00 | 0.00 | 46 | 1010.8 |
| 20260506135009 | 12 | 76 | 3.2 | 11.3 | 0.00 | 0.00 | 0.00 | 43 | 1010.9 |
| 20260506134510 | 12 | 84 | 3.2 | 11.3 | 0.00 | 0.00 | 0.00 | 43 | 1010.9 |
| 20260506134006 | 12 | 98 | 3.2 | 11.3 | 0.00 | 0.00 | 0.00 | 44 | 1011.1 |
| 20260506133507 | 12 | 67 | 1.6 | 11.3 | 0.00 | 0.00 | 0.00 | 44 | 1011.1 |
| 20260506133006 | 12 | 78 | 1.6 | 11.3 | 0.00 | 0.00 | 0.00 | 43 | 1011.2 |
| 20260506132818 | 12 | 36 | 1.6 | 9.7 | 0.00 | 0.00 | 0.00 | 44 | 1011.0 |
| 20260506132711 | 12 | 61 | 3.2 | 9.7 | 0.00 | 0.00 | 0.00 | 41 | 1011.2 |
| 20260506131506 | 12 | 68 | 3.2 | 12.9 | 0.00 | 0.00 | 0.00 | 43 | 1011.0 |
| 20260506131017 | 13 | 88 | 4.8 | 12.9 | 0.00 | 0.00 | 0.00 | 44 | 1011.3 |
| 20260506130503 | 13 | 74 | 3.2 | 8.0 | 0.00 | 0.00 | 0.00 | 44 | 1011.6 |
| 20260506130003 | 13 | 92 | 3.2 | 9.7 | 0.00 | 0.00 | 0.00 | 44 | 1011.6 |
| 20260506125505 | 13 | 19 | 3.2 | 9.7 | 0.00 | 0.00 | 0.00 | 44 | 1011.8 |
| 20260506125002 | 13 | 49 | 1.6 | 8.0 | 0.00 | 0.00 | 0.00 | 43 | 1011.9 |
| 20260506124503 | 13 | 42 | 3.2 | 11.3 | 0.00 | 0.00 | 0.00 | 42 | 1011.9 |
| 20260506124002 | 13 | 52 | 4.8 | 16.1 | 0.00 | 0.00 | 0.00 | 44 | 1012.0 |
| 20260506123504 | 13 | 82 | 4.8 | 16.1 | 0.00 | 0.00 | 0.00 | 45 | 1012.2 |
| 20260506123002 | 13 | 42 | 3.2 | 12.9 | 0.00 | 0.00 | 0.00 | 46 | 1012.3 |
| 20260506122502 | 13 | 330 | 4.8 | 12.9 | 0.00 | 0.00 | 0.00 | 41 | 1012.4 |
| 20260506122004 | 13 | 340 | 3.2 | 12.9 | 0.00 | 0.00 | 0.00 | 40 | 1012.2 |
| 20260506121504 | 14 | 55 | 3.2 | 11.3 | 0.00 | 0.00 | 0.00 | 43 | 1012.3 |
| 20260506121002 | 14 | 59 | 3.2 | 12.9 | 0.00 | 0.00 | 0.00 | 45 | 1012.3 |
| 20260506120456 | 13 | 336 | 3.2 | 12.9 | 0.00 | 0.00 | 0.00 | 44 | 1012.4 |
| 20260506115956 | 14 | 111 | 4.8 | 16.1 | 0.00 | 0.00 | 0.00 | 42 | 1012.3 |
| 20260506115458 | 13 | 351 | 4.8 | 17.7 | 0.00 | 0.00 | 0.00 | 42 | 1012.3 |
| 20260506115217 | 13 | 61 | 4.8 | 17.7 | 0.00 | 0.00 | 0.00 | 44 | 1012.3 |
| 20260506114458 | 14 | 22 | 4.8 | 9.7 | 0.00 | 0.00 | 0.00 | 50 | 1012.2 |
| 20260506113954 | 14 | 80 | 4.8 | 16.1 | 0.00 | 0.00 | 0.00 | 47 | 1012.3 |
| 20260506113944 | 14 | 5 | 4.8 | 16.1 | 0.00 | 0.00 | 0.00 | 46 | 1012.1 |
| 20260506112952 | 13 | 58 | 3.2 | 12.9 | 0.00 | 0.00 | 0.00 | 43 | 1012.0 |
| 20260506112451 | 14 | 95 | 4.8 | 14.5 | 0.00 | 0.00 | 0.00 | 44 | 1012.2 |
| 20260506111949 | 13 | 65 | 4.8 | 16.1 | 0.00 | 0.00 | 0.00 | 41 | 1012.1 |
| 20260506111449 | 14 | 348 | 4.8 | 16.1 | 0.00 | 0.00 | 0.00 | 48 | 1012.0 |
| 20260506111210 | 13 | 69 | 4.8 | 12.9 | 0.00 | 0.00 | 0.00 | 47 | 1012.1 |
| 20260506110448 | 13 | 59 | 8.0 | 14.5 | 0.00 | 0.00 | 0.00 | 47 | 1012.1 |
| 20260506110441 | 13 | 86 | 8.0 | 20.9 | 0.00 | 0.00 | 0.00 | 45 | 1011.9 |
| 20260506105449 | 13 | 51 | 6.4 | 20.9 | 0.00 | 0.00 | 0.00 | 44 | 1012.0 |
| 20260506104948 | 13 | 57 | 6.4 | 16.1 | 0.00 | 0.00 | 0.00 | 43 | 1011.9 |
| 20260506104449 | 13 | 146 | 4.8 | 16.1 | 0.00 | 0.00 | 0.00 | 46 | 1012.1 |
| 20260506103948 | 13 | 54 | 3.2 | 14.5 | 0.00 | 0.00 | 0.00 | 51 | 1012.0 |
| 20260506103448 | 12 | 327 | 4.8 | 17.7 | 0.00 | 0.00 | 0.00 | 44 | 1012.1 |
| 20260506102950 | 13 | 102 | 8.0 | 17.7 | 0.00 | 0.00 | 0.00 | 46 | 1012.2 |
| 20260506102448 | 13 | 27 | 11.3 | 20.9 | 0.00 | 0.00 | 0.00 | 46 | 1012.0 |
| 20260506102211 | 13 | 331 | 8.0 | 20.9 | 0.00 | 0.00 | 0.00 | 47 | 1012.2 |
| 20260506101450 | 13 | 322 | 4.8 | 16.1 | 0.00 | 0.00 | 0.00 | 43 | 1012.3 |
| 20260506100947 | 13 | 55 | 11.3 | 22.5 | 0.00 | 0.00 | 0.00 | 44 | 1012.4 |
| 20260506100442 | 13 | 15 | 9.7 | 22.5 | 0.00 | 0.00 | 0.00 | 48 | 1012.4 |
| 20260506095942 | 13 | 333 | 6.4 | 16.1 | 0.00 | 0.00 | 0.00 | 48 | 1012.4 |
| 20260506095439 | 12 | 304 | 6.4 | 19.3 | 0.00 | 0.00 | 0.00 | 43 | 1012.4 |
| 20260506095419 | 12 | 77 | 8.0 | 19.3 | 0.00 | 0.00 | 0.00 | 43 | 1012.5 |
| 20260506094437 | 12 | 279 | 8.0 | 24.1 | 0.00 | 0.00 | 0.00 | 44 | 1012.5 |
| 20260506093936 | 12 | 82 | 8.0 | 24.1 | 0.00 | 0.00 | 0.00 | 44 | 1012.6 |
| 20260506093436 | 12 | 337 | 6.4 | 19.3 | 0.00 | 0.00 | 0.00 | 45 | 1012.6 |
| 20260506092936 | 12 | 19 | 6.4 | 19.3 | 0.00 | 0.00 | 0.00 | 46 | 1012.8 |
| 20260506092437 | 12 | 324 | 4.8 | 17.7 | 0.00 | 0.00 | 0.00 | 46 | 1012.8 |
| 20260506091932 | 12 | 330 | 4.8 | 17.7 | 0.00 | 0.00 | 0.00 | 44 | 1012.8 |
| 20260506091432 | 12 | 57 | 4.8 | 17.7 | 0.00 | 0.00 | 0.00 | 44 | 1013.0 |
| 20260506090931 | 12 | 23 | 8.0 | 19.3 | 0.00 | 0.00 | 0.00 | 48 | 1013.0 |
| 20260506090653 | 12 | 9 | 6.4 | 19.3 | 0.00 | 0.00 | 0.00 | 46 | 1013.0 |
| 20260506085931 | 11 | 342 | 4.8 | 16.1 | 0.00 | 0.00 | 0.00 | 48 | 1013.2 |
| 20260506085653 | 11 | 89 | 4.8 | 16.1 | 0.00 | 0.00 | 0.00 | 50 | 1013.0 |
| 20260506084931 | 11 | 321 | 4.8 | 14.5 | 0.00 | 0.00 | 0.00 | 47 | 1013.1 |
| 20260506084432 | 11 | 324 | 4.8 | 14.5 | 0.00 | 0.00 | 0.00 | 49 | 1013.0 |
| 20260506083930 | 11 | 323 | 4.8 | 16.1 | 0.00 | 0.00 | 0.00 | 49 | 1013.1 |
| 20260506083430 | 11 | 355 | 4.8 | 17.7 | 0.00 | 0.00 | 0.00 | 46 | 1013.2 |
| 20260506082942 | 11 | 57 | 3.2 | 17.7 | 0.00 | 0.00 | 0.00 | 48 | 1013.1 |
| 20260506082431 | 11 | 78 | 3.2 | 11.3 | 0.00 | 0.00 | 0.00 | 47 | 1013.1 |
| 20260506081929 | 11 | 81 | 4.8 | 12.9 | 0.00 | 0.00 | 0.00 | 45 | 1013.2 |
| 20260506081430 | 11 | 80 | 3.2 | 12.9 | 0.00 | 0.00 | 0.00 | 45 | 1013.2 |
| 20260506080930 | 11 | 80 | 4.8 | 14.5 | 0.00 | 0.00 | 0.00 | 52 | 1013.2 |
| 20260506080425 | 11 | 325 | 4.8 | 14.5 | 0.00 | 0.00 | 0.00 | 51 | 1013.4 |